GW4262 Weather Reports


Display with metric or nautical units.
time (UTC)temp
F
wind
direction
speed
MPH
gust
MPH
rain 1hr
in
rain 24hr
in
rain mn
in
humidity
%
barometer
mb
20260906033031 69 236 0.0 0.0 0.00 0.00 0.00 91 1015.1
20260906031514 69 236 0.0 0.0 0.00 0.00 0.00 90 1015.2
20260906030018 69 236 0.0 0.0 0.00 0.00 0.00 90 1015.1
20260906024525 69 236 0.0 0.0 0.00 0.00 0.00 89 1015.0
20260906023005 69 236 0.0 0.0 0.00 0.00 0.00 88 1014.7
20260906021508 70 236 0.0 1.0 0.00 0.00 0.00 86 1014.7
20260906020015 69 237 0.0 2.0 0.00 0.00 0.00 87 1014.6
20260906014522 69 241 0.0 0.0 0.00 0.00 0.00 90 1014.5
20260906013027 70 241 0.0 0.0 0.00 0.00 0.00 89 1014.5
20260906011508 70 241 0.0 0.0 0.00 0.00 0.00 89 1014.2
20260906010015 71 241 0.0 0.0 0.00 0.00 0.00 89 1014.0
20260906004516 72 241 0.0 0.0 0.00 0.00 0.00 88 1014.0
20260906003024 73 241 0.0 0.0 0.00 0.00 0.00 89 1013.8
20260906001529 74 241 0.0 0.0 0.00 0.00 0.00 89 1013.7
20260906000013 75 241 0.0 1.0 0.00 0.00 0.00 88 1013.5
20260905234524 76 241 0.0 2.0 0.00 0.00 0.00 88 1013.6
20260905233026 77 241 0.0 2.0 0.00 0.00 0.00 87 1013.6
20260905231528 78 241 0.0 2.0 0.00 0.00 0.00 85 1013.5
20260905230027 79 241 0.0 2.0 0.00 0.00 0.00 83 1013.3
20260905224512 80 241 0.0 0.0 0.00 0.00 0.00 81 1013.1
20260905223016 81 241 0.0 2.0 0.00 0.00 0.00 78 1013.3
20260905221523 82 241 0.0 2.0 0.00 0.00 0.00 75 1013.3
20260905220029 83 241 0.0 2.0 0.00 0.00 0.00 71 1013.2
20260905214530 83 280 0.0 2.0 0.00 0.00 0.00 73 1013.3
20260905213015 82 275 0.0 2.0 0.00 0.00 0.00 69 1013.2
20260905211519 82 219 1.0 2.0 0.00 0.00 0.00 70 1013.3
20260905210043 81 252 1.0 2.0 0.00 0.00 0.00 71 1013.5
20260905204510 81 250 0.0 3.0 0.00 0.00 0.00 73 1013.7
20260905203011 81 261 1.0 7.0 0.00 0.00 0.00 69 1013.9
20260905201520 81 256 1.0 3.0 0.00 0.00 0.00 72 1014.0
20260905200038 80 215 1.0 3.0 0.00 0.00 0.00 72 1014.1
20260905194536 79 241 1.0 2.0 0.00 0.00 0.00 77 1014.2
20260905193020 79 223 0.0 2.0 0.00 0.00 0.00 78 1014.4
20260905191513 79 144 1.0 4.0 0.00 0.00 0.00 74 1014.2
20260905190021 80 175 1.0 5.0 0.00 0.00 0.00 72 1014.1
20260905184535 79 360 1.0 7.0 0.00 0.00 0.00 75 1014.0
20260905183036 79 360 0.0 2.0 0.00 0.00 0.00 79 1014.0
20260905181514 82 360 0.0 2.0 0.00 0.00 0.00 73 1013.8
20260905180032 84 360 0.0 2.0 0.00 0.00 0.00 68 1014.7
20260905174535 87 360 0.0 4.0 0.00 0.00 0.00 67 1015.6
20260905173035 89 13 0.0 2.0 0.00 0.00 0.00 62 1015.7
20260905171529 91 9 0.0 2.0 0.00 0.00 0.00 57 1015.5
20260905170032 93 360 0.0 2.0 0.00 0.00 0.00 61 1015.6
20260905164526 92 250 1.0 3.0 0.00 0.00 0.00 57 1015.6
20260905163027 90 287 0.0 0.0 0.00 0.00 0.00 67 1015.7
20260905161532 90 287 0.0 2.0 0.00 0.00 0.00 68 1015.8
20260905160047 91 234 1.0 3.0 0.00 0.00 0.00 60 1016.0
20260905154519 89 238 1.0 6.0 0.00 0.00 0.00 63 1016.1
20260905153025 90 296 1.0 4.0 0.00 0.00 0.00 63 1015.9
20260905151533 90 218 1.0 4.0 0.00 0.00 0.00 62 1015.6
20260905150019 87 231 1.0 4.0 0.00 0.00 0.00 68 1015.7
20260905144536 86 232 0.0 3.0 0.00 0.00 0.00 70 1015.7
20260905143025 85 78 0.0 2.0 0.00 0.00 0.00 76 1015.8
20260905141504 84 136 0.0 2.0 0.00 0.00 0.00 83 1015.8
20260905140031 82 189 0.0 2.0 0.00 0.00 0.00 85 1015.8
20260905134533 79 199 0.0 1.0 0.00 0.00 0.00 91 1015.8
20260905133024 77 176 0.0 0.0 0.00 0.00 0.00 94 1015.9
20260905131542 75 176 0.0 2.0 0.00 0.00 0.00 95 1016.0
20260905130007 74 242 0.0 0.0 0.00 0.00 0.00 96 1016.2
20260905124510 72 242 0.0 0.0 0.00 0.00 0.00 96 1016.2
20260905123016 71 242 0.0 0.0 0.00 0.00 0.00 95 1016.1
20260905121524 70 242 0.0 0.0 0.00 0.00 0.00 95 1016.1
20260905120030 69 242 0.0 0.0 0.00 0.00 0.00 95 1016.0
20260905114507 69 242 0.0 0.0 0.00 0.00 0.00 95 1015.9
20260905113018 69 242 0.0 0.0 0.00 0.00 0.00 95 1015.9
20260905111526 69 242 0.0 0.0 0.00 0.00 0.00 95 1015.5
20260905110030 69 242 0.0 0.0 0.00 0.00 0.00 95 1015.3
20260905105058 69 242 0.0 0.0 0.00 0.00 0.00 95 1015.0
20260905105051 69 242 0.0 0.0 0.00 0.00 0.00 95 1015.0
20260905101521 69 242 0.0 0.0 0.00 0.00 0.00 95 1015.0
20260905100026 69 242 0.0 0.0 0.00 0.00 0.00 95 1014.9
20260905094530 70 242 0.0 0.0 0.00 0.00 0.00 95 1015.0
20260905093009 70 242 0.0 0.0 0.00 0.00 0.00 95 1014.9
20260905091516 70 242 0.0 0.0 0.00 0.00 0.00 95 1014.9
20260905090024 70 242 0.0 0.0 0.00 0.00 0.00 95 1014.9
20260905084531 70 242 0.0 0.0 0.00 0.00 0.00 95 1015.0
20260905083007 70 242 0.0 0.0 0.00 0.00 0.00 94 1015.2
20260905081516 70 242 0.0 0.0 0.00 0.00 0.00 94 1015.4
20260905080022 70 242 0.0 0.0 0.00 0.00 0.00 94 1015.5
20260905074537 71 242 0.0 0.0 0.00 0.00 0.00 94 1015.8
20260905073007 71 242 0.0 0.0 0.00 0.00 0.00 94 1015.9
20260905071511 71 242 0.0 0.0 0.00 0.00 0.00 94 1015.7
20260905070018 71 242 0.0 0.0 0.00 0.00 0.00 94 1016.0
20260905064525 71 242 0.0 0.0 0.00 0.00 0.00 94 1016.1
20260905063030 71 242 0.0 0.0 0.00 0.00 0.00 94 1016.2
20260905061508 71 242 0.0 0.0 0.00 0.00 0.00 94 1016.4
20260905060016 72 242 0.0 0.0 0.00 0.00 0.00 93 1016.7
20260905054524 72 242 0.0 0.0 0.00 0.00 0.00 93 1016.8
20260905053034 72 242 0.0 0.0 0.00 0.00 0.00 93 1016.9
20260905051531 72 242 0.0 0.0 0.00 0.00 0.00 93 1017.1
20260905050016 72 242 0.0 0.0 0.00 0.00 0.00 93 1017.0
20260905044521 72 242 0.0 0.0 0.00 0.00 0.00 93 1016.9
20260905043028 73 242 0.0 0.0 0.00 0.00 0.00 93 1017.0
20260905041529 73 242 0.0 0.0 0.00 0.00 0.00 93 1016.8